This is the latest recevied weather packets stored in our database for station/object EA5LR-10. If no packets are shown the sender has not sent any weather packets the latest 1 day(s).
| Time | Temp. | Humidity | Pressure | Rain* | Wind** | Luminosity | Snow |
|---|---|---|---|---|---|---|---|
| 1778203908 | 14.44° C | 93% | 1013.6 hPa | 0 mm | - | - | - |
| 1778203608 | 14.44° C | 93% | 1013.8 hPa | 0 mm | - | - | - |
| 1778203308 | 14.44° C | 93% | 1013.8 hPa | 0 mm | - | - | - |
| 1778203007 | 14.44° C | 93% | 1013.8 hPa | 0 mm | - | - | - |
| 1778202708 | 14.44° C | 93% | 1013.9 hPa | 0 mm | - | - | - |
| 1778202408 | 14.44° C | 93% | 1013.9 hPa | 0 mm | - | - | - |
| 1778202108 | 14.44° C | 93% | 1014 hPa | 0 mm | - | - | - |
| 1778201808 | 14.44° C | 93% | 1014 hPa | 0 mm | - | - | - |
| 1778201508 | 14.44° C | 93% | 1014.1 hPa | 0 mm | - | - | - |
| 1778201207 | 14.44° C | 93% | 1014.3 hPa | 0 mm | - | - | - |
| 1778200908 | 15° C | 92% | 1014.2 hPa | 0 mm | - | - | - |
| 1778198807 | 15° C | 92% | 1014.7 hPa | 0 mm | - | - | - |
| 1778196408 | 15° C | 91% | 1014.8 hPa | 0 mm | - | - | - |
| 1778179607 | 14.44° C | 94% | 1013.2 hPa | 0 mm | - | - | - |
| 1778173234 | 16.67° C | 93% | 1012.3 hPa | 3.05 mm | - | - | - |
| 1778171434 | 16.67° C | 92% | 1012 hPa | 0 mm | - | - | - |
| 1778167834 | 17.22° C | 92% | 1011.5 hPa | 18.03 mm | - | - | - |
| 1778163634 | 17.78° C | 92% | 1011.7 hPa | 0 mm | - | - | - |
| 1778163034 | 17.78° C | 92% | 1011.7 hPa | 1.27 mm | - | - | - |
| 1778162134 | 17.78° C | 93% | 1011.6 hPa | 0 mm | - | - | - |
| 1778161534 | 17.78° C | 93% | 1011.7 hPa | 3.05 mm | - | - | - |
| 1778161234 | 17.22° C | 92% | 1011.7 hPa | 4.83 mm | - | - | - |
| 1778158834 | 17.78° C | 89% | 1012.4 hPa | 1.27 mm | - | - | - |
| 1778158534 | 17.78° C | 89% | 1012.2 hPa | 3.05 mm | - | - | - |
| 1778158234 | 17.78° C | 88% | 1012.4 hPa | 4.83 mm | - | - | - |
* Rain latest hour (hover to see other rain measurements)
** Current wind speed in m/s (hover to see current wind gust speed)